Regional Weather Roundup
Issued by NWS Portland, ME

Home | Current Version | Previous Version | Text Only | Print | Product List | Glossary On
Versions: 1 2 3 4 5 6 7 8 9 10 11 12 13 14 15 16 17 18 19 20 21 22 23 24 25 26 27 28 29 30 31 32 33 34 35 36 37 38 39 40 41 42 43 44 45 46 47 48 49 50
000
ASUS41 KGYX 231910
RWRGYX
WEATHER ROUNDUP FOR MAINE AND NEW HAMPSHIRE
NATIONAL WEATHER SERVICE GRAY ME
200 PM EST SUN NOV 23 2014

MEZ002-005-006-010-012-015-018-020-021-024-026-027-029-232000-
MAINE

CITY           SKY/WX    TMP DP  RH WIND       PRES   REMARKS
PORTLAND       MOSUNNY   57  40  52 W8        30.07R
SANFORD        MOSUNNY   57  37  47 SW9       30.08S
BAR HARBOR     MOSUNNY   52  37  58 W3        30.06S
WISCASSET      SUNNY     54  38  54 SW7       30.08R
ROCKLAND       SUNNY     52  39  62 SW9       30.05S
FRYEBURG       PTSUNNY   53  39  59 SW9       30.06R
LEWISTONAUBURN MOSUNNY   54  39  58 SW7       30.07R
AUGUSTA        PTSUNNY   53  37  54 VRB6      30.06R
WATERVILLE     CLOUDY    50  36  57 SW5       30.03R
BANGOR         PTSUNNY   49  33  54 CALM      30.05S
GREENVILLE       N/A     39  34  82 CALM      30.00R
MILLINOCKET    CLOUDY    43  33  68 CALM      30.05R
HOULTON        CLOUDY    41  31  67 W5        30.02R
PRESQUE ISLE   CLOUDY    43  28  56 W10       30.01R
FRENCHVILLE    CLOUDY    36  29  75 W5        29.98R
CARIBOU        CLOUDY    40  29  64 W7        30.00R
$$

NHZ002-005-008-009-011-012-014-232000-
NEW HAMPSHIRE

CITY           SKY/WX    TMP DP  RH WIND       PRES   REMARKS
PORTSMOUTH     MOSUNNY   58  40  50 SW7       30.07R
ROCHESTER      SUNNY     57  40  52 VRB5      30.06F
NASHUA         SUNNY     59  40  49 NW5       30.10R
MANCHESTER     MOSUNNY   58  40  51 CALM      30.07S
CONCORD        SUNNY     56  39  53 W9        30.08S
LACONIA        CLOUDY    54  39  58 SW12      30.06S
PLYMOUTH       PTSUNNY   51  45  78 CALM      30.08R
BERLIN         CLOUDY    40  37  89 CALM      30.05R
WHITEFIELD     CLOUDY    48  39  71 W6        30.06R
JAFFREY        SUNNY     54  39  57 VRB7      30.10R
LEBANON        SUNNY     54  40  59 SW5       30.07R
MT WASHINGTON  FOG       27  27 100 W47G55      N/A  VSB 0   WCI   7
$$

VTZ005-007-008-232000-
VERMONT

CITY           SKY/WX    TMP DP  RH WIND       PRES   REMARKS
ST JOHNSBURY     N/A     42  38  85 MISG      30.05R
MONTPELIER     PTSUNNY   51  39  63 VRB6      30.08S
BURLINGTON     PTSUNNY   50  39  66 S9        30.05S
$$

MAZ007-012-024-CTZ003-RIZ002-NYZ038-NYZ072-232000-
SOUTHERN NEW ENGLAND AND NY

CITY           SKY/WX    TMP DP  RH WIND       PRES   REMARKS
BOSTON         MOSUNNY   59  38  45 W9        30.10F
WORCESTER      CLOUDY    54  37  52 W10       30.11S
NANTUCKET      SUNNY     57  43  59 W18       30.16R
PROVIDENCE     MOSUNNY   58  33  39 SW8       30.13S
HARTFORD       PTSUNNY   59  27  29 E7        30.10F
ALBANY         PTSUNNY   53  29  39 S7        30.09F
NEW YORK CITY  PTSUNNY   55  25  31 S10       30.14S
$$

ANZ081-ANZ082-ANZ150-NHZ014-MEZ023>029-232000-
COASTAL MARINE OBSERVATIONS

STATION/POSITION TIME  TEMP    WIND        PRES    WAVE
                       AIR SEA DIR/SP/G            HT/PER
                 (UTC) (F)     (DEG/KT/KT) (MB)    (FT/S)
MOUNT DESERT ROC 1900   49                 1017.7F
MATINICUS ROCK   1900          260/ 14/ 15 1017.8R
PORTLAND WX BUOY 1850   52 51  220/ 10/ 12 1018.1R   3/ 6
WELLS            1800   56 46  290/  5/ 10 1017.4F
ISLE OF SHOALS   1900   54     210/ 11/ 12 1018.0R
JEFFREYS LEDGE   1821      51                N/A     3/ 5
CASHES LEDGE BUO 1850   51 51  250/ 16/ 17 1018.2R
$$

.............KEY..............
   WCI - WIND CHILL
   TC  - TEMPERATURE IN CELSIUS
   VSB - VISIBILITY IN MILES
   HX  - HEAT INDEX
   FAIR- INDICATES FEW OR NO CLOUDS BELOW 12,000 FT, WITH NO
         SIGNIFICANT WEATHER AND/OR OBSTRUCTIONS TO VISIBILITY.





USA.gov is the U.S. government's official web portal to all federal, state and local government web resources and services.